Regional Weather Roundup
Issued by NWS

Home | Current Version | Previous Version | Graphics & Text | Print | Product List | Glossary On
Versions: 1 2 3 4 5 6 7 8 9 10 11 12 13 14 15 16 17 18 19 20 21 22 23 24 25 26 27 28 29 30 31 32 33 34 35 36 37 38 39 40 41 42 43 44 45 46 47 48 49 50
266
ASUS43 KLSX 181007
RWRMO

WEATHER SUMMARY FOR MISSOURI
NATIONAL WEATHER SERVICE SPRINGFIELD MO
400 AM CST THU JAN 18 2018

NOTE: "FAIR" INDICATES FEW OR NO CLOUDS BELOW 12,000 FEET WITH NO
       SIGNIFICANT WEATHER AND/OR OBSTRUCTIONS TO VISIBILITY.
       CURRENT SKY AND/OR WEATHER CONDITIONS ARE NOT AVAILABLE FOR
       CHILLICOTHE AND FARMINGTON.

MOZ001>031-035>038-043-044-053-054-181100-
...NORTHERN AND WESTERN MISSOURI...

CITY           SKY/WX    TMP DP  RH WIND       PRES   REMARKS
KANSAS CTY INT CLEAR     17   7  64 S9        30.30F WCI   6
KANSAS C DTWN  CLOUDY    22   8  55 SW9       30.33F WCI  12
LEE`S SUMMIT   CLOUDY    18   9  68 SW14      30.33F WCI   4
ST JOSEPH      CLOUDY    16   9  74 S8        30.29F WCI   5
CHILLICOTHE      N/A     13   8  81 S7        30.32F WCI   3
KIRKSVILLE     CLOUDY    16  11  80 SW10      30.28F WCI   4

$$
MOZ066>068-077>081-088>096-101>105-181100-
...SOUTHWEST MISSOURI...

CITY           SKY/WX    TMP DP  RH WIND       PRES   REMARKS
SPRINGFIELD    CLOUDY    10   4  76 S3        30.40F
JOPLIN         CLOUDY    21   8  57 SW16      30.43F WCI   7
BRANSON        CLOUDY    18   5  57 CALM      30.43F

$$
MOZ032>034-039>042-045>050-055>058-069>072-181100-
...CENTRAL MISSOURI...

CITY           SKY/WX    TMP DP  RH WIND       PRES   REMARKS
COLUMBIA       CLOUDY    14   8  77 S9        30.37F WCI   2
JEFFERSON CITY CLOUDY    16   7  67 SE3       30.42F
ROLLA          CLOUDY    14   7  73 SW12      30.39F WCI   0
SEDALIA        CLOUDY    20  10  65 SW16G24   30.36F WCI   6
WHITEMAN AFB   CLOUDY    16   6  66 SW13      30.32F WCI   2
WARRENSBURG    CLOUDY    14   9  79 S9        30.37F WCI   2
OSAGE BEACH    CLOUDY    10   4  76 S6        30.42F WCI   0

$$
MOZ051-052-059>065-181100-
...EAST CENTRAL MISSOURI...

CITY           SKY/WX    TMP DP  RH WIND       PRES   REMARKS
ST LOUIS INTL  CLOUDY    19   9  65 W9        30.41F WCI   8
SPIRIT OF STL  CLOUDY    19   9  65 SW8       30.41F WCI   9
ST CHARLES     CLEAR     12   6  77 SW8       30.41F WCI   0

$$
MOZ072>076-082>087-097>100-106>115-181100-
...SOUTH CENTRAL AND SOUTHEAST MISSOURI...

CITY           SKY/WX    TMP DP  RH WIND       PRES   REMARKS
CAPE GIRARDEAU FAIR       9   6  88 CALM      30.50F
FARMINGTON     FAIR      15   8  73 S5        30.42F WCI   8
POPLAR BLUFF   FAIR      13  10  88 SW5       30.50F WCI   5
WEST PLAINS    CLOUDY    14   7  73 SW6       30.43F WCI   5

$$



USA.gov is the U.S. government's official web portal to all federal, state and local government web resources and services.